Back to catalog

STARLINK-30782

AliveCommunicationsVLEO
NORAD 58137·PAYLOAD·🇺🇸 United States

Launched Oct 22, 2023 from Cape Canaveral Space Force Station

Loading…

Next Passes (next 24 hours)

TLE

FreshSource: CelesTrak SupGP

Epoch: Sep 14, 2026, 13:43 UTC

1 58137C 23162V   26257.57201389  .00057215  00000+0  20785-2 0  2575
2 58137  42.9991 145.9314 0001352 249.5430  64.2945 15.27451749    11

Track STARLINK-30782 in real time with AllMySat

Download on the App Store